Manila, Philippines

9:20 AM +08 on April 20, 2018 (GMT +0800)
Ninoy Aquino International

Weather History for RPLL - January, 2018

Change the Weather History Date:

Saturday, January 13, 2018

  Actual Average Record
Temperature  
Mean Temperature 80 °F -  
Max Temperature 86 °F 85 °F 100 °F (2000)
Min Temperature 73 °F 72 °F 69 °F (1997)
Cooling Degree Days 14    
Growing Degree Days 30 (Base 50)    
Moisture  
Dew Point 65 °F    
Average Humidity 60    
Maximum Humidity 77    
Minimum Humidity 37    
Precipitation  
Precipitation 0.00 in 0.01 in - ()
Sea Level Pressure  
Sea Level Pressure 29.93 in    
Wind  
Wind Speed 6 mph ()    
Max Wind Speed 20 mph    
Max Gust Speed 31 mph    
Visibility 6.2 miles    
Events      
Averages and records for this station are not official NWS values.
T = Trace of Precipitation, MM = Missing Value Source: Averaged Metar Reports

Daily Weather History Graph

Daily Weather History Graph

Search for Another Location

Airport or City:

Astronomy

Jan. 13, 2018 Rise Set
Actual Time 6:24 AM +08 5:44 PM +08
Civil Twilight 6:01 AM +08 6:07 PM +08
Nautical Twilight 5:34 AM +08 6:34 PM +08
Astronomical Twilight 5:08 AM +08 7:00 PM +08
Moon 3:05 AM +08 (1/13) 2:49 PM +08 (1/13)
Length of Visible Light 12h 06m
Length of Day
11h 20m
Waning Crescent, 13% of the Moon is Illuminated
Jan 13
Waning Crescent
Jan 17
New
Jan 25
First Quarter
Jan 31
Full
Feb 7
Last Quarter

Hourly Weather History & Observations

Time (+08) Temp. Heat Index Dew Point Humidity Pressure Visibility Wind Dir Wind Speed Gust Speed Precip Events Conditions
12:00 AM 75.2 °F - 66.2 °F 73% 29.95 in 6.2 mi ENE 5.8 mph - N/A   Mostly Cloudy
1:00 AM 77.0 °F - 64.4 °F 65% 29.95 in 6.2 mi Calm Calm - N/A   Mostly Cloudy
2:00 AM 75 °F - 65 °F 64% 29.92 in 6 mi WNW 2.2 mph - -   Haze
2:00 AM 75.2 °F - 64.4 °F 69% 29.92 in 6.2 mi Variable 2.3 mph - N/A   Scattered Clouds
3:00 AM 77.0 °F - 64.4 °F 65% 29.92 in 6.2 mi Calm Calm - N/A   Scattered Clouds
4:00 AM 75.2 °F - 64.4 °F 69% 29.89 in 6.2 mi Calm Calm - N/A   Partly Cloudy
5:00 AM 74 °F - 65 °F 67% 29.91 in 6 mi Calm Calm - -   Haze
5:00 AM 75.2 °F - 66.2 °F 73% 29.92 in 6.2 mi Calm Calm - N/A   Mostly Cloudy
6:00 AM 77.0 °F - 64.4 °F 65% 29.92 in 6.2 mi North 6.9 mph - N/A   Mostly Cloudy
7:00 AM 75.2 °F - 64.4 °F 69% 29.95 in 6.2 mi North 4.6 mph - N/A   Mostly Cloudy
8:00 AM 77 °F - 71 °F 77% 29.98 in 6 mi North 4.5 mph - -   Haze
8:00 AM 77.0 °F - 64.4 °F 65% 29.98 in 6.2 mi North 5.8 mph - N/A   Mostly Cloudy
9:00 AM 80.6 °F 82.3 °F 64.4 °F 58% 29.98 in 6.2 mi Calm Calm - N/A   Mostly Cloudy
10:00 AM 82.4 °F 83.4 °F 62.6 °F 51% 29.98 in 6.2 mi ENE 11.5 mph - N/A   Mostly Cloudy
11:00 AM 85 °F - 66 °F 43% 29.97 in 6 mi NE 13.4 mph - -   Haze
11:00 AM 84.2 °F 86.6 °F 66.2 °F 55% 29.95 in 6.2 mi NE 13.8 mph 26.5 mph N/A   Scattered Clouds
12:00 PM 86.0 °F 86.6 °F 62.6 °F 45% 29.95 in 6.2 mi ENE 15.0 mph - N/A   Scattered Clouds
1:00 PM 86.0 °F 87.3 °F 64.4 °F 48% 29.92 in 6.2 mi ENE 18.4 mph - N/A   Scattered Clouds
2:00 PM 86 °F - 64 °F 37% 29.88 in 6 mi ENE 17.9 mph - -   Haze
2:00 PM 86.0 °F 87.3 °F 64.4 °F 48% 29.89 in 6.2 mi ENE 19.6 mph 31.1 mph N/A   Scattered Clouds
3:00 PM 86.0 °F 87.3 °F 64.4 °F 48% 29.86 in 6.2 mi East 19.6 mph - N/A   Scattered Clouds
4:00 PM 84.2 °F 85.6 °F 64.4 °F 51% 29.86 in 6.2 mi East 17.3 mph - N/A   Partly Cloudy
5:00 PM 82 °F - 64 °F 45% 29.89 in 6 mi East 15.7 mph - -   Haze
5:00 PM 82.4 °F 83.9 °F 64.4 °F 54% 29.89 in 6.2 mi East 16.1 mph - N/A   Partly Cloudy
6:00 PM 80.6 °F 82.3 °F 64.4 °F 58% 29.89 in 6.2 mi ENE 8.1 mph - N/A   Partly Cloudy
7:00 PM 78.8 °F - 64.4 °F 61% 29.92 in 6.2 mi East 9.2 mph - N/A   Scattered Clouds
8:00 PM 78 °F - 65 °F 56% 29.93 in 6 mi ENE 11.2 mph - -   Haze
8:00 PM 78.8 °F - 64.4 °F 61% 29.92 in 6.2 mi ENE 11.5 mph - N/A   Scattered Clouds
9:00 PM 78.8 °F - 64.4 °F 61% 29.95 in 6.2 mi East 9.2 mph - N/A   Mostly Cloudy
10:00 PM 77.0 °F - 68.0 °F 74% 29.98 in 6.2 mi NE 4.6 mph - N/A   Mostly Cloudy
11:00 PM 78 °F - 67 °F 60% 29.96 in 6 mi ENE 6.7 mph - -   Haze
11:00 PM 77.0 °F - 66.2 °F 69% 29.95 in 6.2 mi East 6.9 mph - N/A   Scattered Clouds